Home > Weather > Behbahan > Past weeks

Flag for Iran Past Weather in Behbahan, Iran — Yesterday and Last 2 Weeks

Now
108 °F

Sunny.


Feels Like: 101 °F
Forecast: 80 / 115 °F
Wind: No wind

Location: Gach Saran Du Gunbadan

Current Time: Jun 26, 2016 at 12:58:17 PM

Latest Report: Jun 26, 2016 at 12:30 PM


Visibility: 10 mi

Pressure: 29.71 "Hg

Humidity: 7%

Dew Point: 30 °F

Location of BehbahanLocation

Past Weather in Behbahan — Graph

°F

Behbahan Temperature Yesterday

Maximum temperature yesterday: 109 °F (at 2:30 PM)
Minimum temperature yesterday: 77 °F (at 5:30 AM)
Average temperature yesterday: 94 °F

High & Low Weather Summary for the Past Weeks

 TemperatureHumidityPressure
High111 °F (Jun 21, 2:30 PM)30% (Jun 26, 4:30 AM)29.86 "Hg (Jun 26, 4:30 AM)
Low68 °F (Jun 14, 4:30 AM)3% (Jun 11, 5:30 PM)29.59 "Hg (Jun 24, 6:30 PM)
Average92 °F11%29.73 "Hg
* Reported Jun 11 11:30 AM — Jun 26 11:30 AM, Behbahan, Weather by CustomWeather, © 2016

Note: Actual official high and low records may vary slightly from our data, if they occured in-between our weather recording intervals... More about our weather records

Advertising

Behbahan Weather History for the Previous 24 Hours

Scroll right to see more
 ConditionsComfort  
Time TempWeatherWind HumidityBarometerVisibility
11:30 AM
Sun, Jun 26
104 °FSunny.No wind11%29.74 "Hg10 mi
10:30 AM102 °FSunny.No wind10%29.74 "Hg10 mi
9:30 AM99 °FSunny.No wind15%29.74 "Hg10 mi
8:30 AM91 °FSunny.No wind20%29.74 "Hg10 mi
7:30 AM82 °FClear.No wind23%29.74 "Hg10 mi
6:30 AM81 °FClear.No wind24%29.74 "Hg10 mi
5:30 AM79 °FClear.No wind26%29.71 "Hg10 mi
4:30 AM79 °FClear.No wind30%29.71 "Hg10 mi
3:30 AM79 °FClear.No wind26%29.71 "Hg10 mi
2:30 AM84 °FClear.No wind22%29.71 "Hg10 mi
1:30 AM84 °FClear.No wind22%29.71 "Hg10 mi
12:30 AM88 °FClear.No wind21%29.71 "Hg10 mi
11:30 PM
Sat, Jun 25
90 °FClear.No wind18%29.74 "Hg10 mi
10:30 PM91 °FClear.No wind16%29.71 "Hg10 mi
9:30 PM93 °FSunny.No wind16%29.71 "Hg10 mi
8:30 PM97 °FSunny.7 mph12%29.68 "Hg10 mi
7:30 PM102 °FSunny.14 mph11%29.68 "Hg10 mi
6:30 PM104 °FSunny.14 mph10%29.68 "Hg10 mi
5:30 PM106 °FSunny.12 mph8%29.65 "Hg10 mi
4:30 PM108 °FSunny.7 mph6%29.65 "Hg10 mi
3:30 PM109 °FSunny.9 mph5%29.68 "Hg10 mi
2:30 PM109 °FPassing clouds.12 mph8%29.68 "HgN/A
1:30 PM108 °FSunny.No wind7%29.68 "Hg10 mi
12:30 PM108 °FSunny.No wind6%29.71 "Hg10 mi
Weather by CustomWeather, © 2016

See weather overviewHow to use our weather pages